Location: Caltech
(34.1382°N, 118.1253°W)
Time: 04:28:44
(UTC-07:00)

TMSAT-1 - Visible Passes

Search period start: 31 July 2014 00:00
Search period end: 10 August 2014 00:00
Orbit: 809 x 814 km, 98.4° (Epoch: 29 July)

Date Brightness Start Highest point End Pass type
(mag) Time Alt. Az. Time Alt. Az. Time Alt. Az.
31 Jul 10.0 03:33:26 10° NNE 03:38:29 44° E 03:40:32 30° SSE visible
31 Jul 10.6 05:14:19 10° NNW 05:18:02 20° WNW 05:21:42 10° WSW visible
01 Aug 10.8 03:10:39 10° NE 03:15:01 26° E 03:16:50 21° SE visible
01 Aug 10.0 04:50:14 10° N 04:54:53 32° WNW 04:57:59 18° WSW visible
02 Aug 11.4 02:48:33 10° ENE 02:51:29 15° E 02:53:07 13° ESE visible
02 Aug 9.3 04:26:31 10° N 04:31:40 54° WNW 04:34:17 28° SW visible
03 Aug 9.0 04:03:04 10° NNE 04:08:23 88° ESE 04:10:34 37° SSW visible
04 Aug 9.7 03:39:51 10° NNE 03:45:00 52° E 03:46:51 35° SSE visible
04 Aug 10.8 05:21:10 10° NNW 05:24:27 17° WNW 05:27:45 10° WSW visible
05 Aug 10.6 03:16:57 10° NE 03:21:34 30° E 03:23:09 26° SE visible
05 Aug 10.2 04:56:55 10° NNW 05:01:20 28° WNW 05:04:18 17° WSW visible
06 Aug 11.2 02:54:34 10° NE 02:58:03 18° E 02:59:26 16° ESE visible
06 Aug 9.5 04:33:06 10° N 04:38:09 46° WNW 04:40:36 27° SW visible
07 Aug 9.0 04:09:34 10° N 04:14:52 79° WNW 04:16:53 39° SSW visible
08 Aug 9.4 03:46:17 10° NNE 03:51:31 61° E 03:53:10 41° SSE visible
08 Aug 10.9 05:28:06 10° NNW 05:30:52 15° WNW 05:33:38 10° W visible
09 Aug 10.3 03:23:16 10° NNE 03:28:06 35° E 03:29:27 31° SE visible
09 Aug 10.3 05:03:37 10° NNW 05:07:47 24° WNW 05:10:37 16° WSW visible
